Time,TemperatureF,DewpointF,PressureIn,WindDirection,WindDirectionDegrees,WindSpeedMPH,WindSpeedGustMPH,Humidity,HourlyPrecipIn,Conditions,Clouds,dailyrainin,SoftwareType,DateUTC
2010-07-25 00:01:00,68.7,66.9,30.02,East,80,0.0,0.0,94,0.00,,,0.00,WeatherTracker,2010-07-25 05:01:00,
2010-07-25 00:06:00,68.7,66.9,30.03,East,80,0.0,0.0,94,0.00,,,0.00,WeatherTracker,2010-07-25 05:06:00,
2010-07-25 00:11:00,68.6,66.5,30.03,East,80,0.0,0.0,93,0.00,,,0.00,WeatherTracker,2010-07-25 05:11:00,
2010-07-25 00:16:00,68.5,66.4,30.03,East,80,0.0,0.0,93,0.00,,,0.00,WeatherTracker,2010-07-25 05:16:00,
2010-07-25 00:21:00,68.3,66.2,30.03,East,80,0.0,0.0,93,0.00,,,0.00,WeatherTracker,2010-07-25 05:21:00,
2010-07-25 00:26:00,68.2,66.4,30.03,East,80,0.0,0.0,94,0.00,,,0.00,WeatherTracker,2010-07-25 05:26:00,
2010-07-25 00:31:00,68.1,66.3,30.04,East,80,0.0,0.0,94,0.00,,,0.00,WeatherTracker,2010-07-25 05:31:00,
2010-07-25 00:36:00,68.0,66.2,30.04,East,80,0.0,0.0,94,0.00,,,0.00,WeatherTracker,2010-07-25 05:36:00,
2010-07-25 00:41:00,67.9,66.1,30.03,East,80,0.0,0.0,94,0.00,,,0.00,WeatherTracker,2010-07-25 05:41:00,
2010-07-25 00:46:00,67.9,66.1,30.03,East,80,0.0,0.0,94,0.00,,,0.00,WeatherTracker,2010-07-25 05:46:00,
2010-07-25 00:51:00,67.8,66.0,30.03,East,80,0.0,0.0,94,0.00,,,0.00,WeatherTracker,2010-07-25 05:51:00,
2010-07-25 00:56:00,67.7,65.9,30.03,East,80,0.0,0.0,94,0.00,,,0.00,WeatherTracker,2010-07-25 05:56:00,
2010-07-25 01:02:00,67.6,65.8,30.03,East,80,0.0,0.0,94,0.00,,,0.00,WeatherTracker,2010-07-25 06:02:00,
2010-07-25 01:07:00,67.6,65.8,30.03,East,80,0.0,0.0,94,0.00,,,0.00,WeatherTracker,2010-07-25 06:07:00,
2010-07-25 01:12:00,67.6,65.8,30.04,East,80,0.0,0.0,94,0.00,,,0.00,WeatherTracker,2010-07-25 06:12:00,
2010-07-25 01:17:00,67.5,65.7,30.04,East,80,0.0,0.0,94,0.00,,,0.00,WeatherTracker,2010-07-25 06:17:00,
2010-07-25 01:22:00,67.4,65.6,30.04,East,80,0.0,0.0,94,0.00,,,0.00,WeatherTracker,2010-07-25 06:22:00,
2010-07-25 01:27:00,67.4,65.6,30.04,East,80,0.0,0.0,94,0.00,,,0.00,WeatherTracker,2010-07-25 06:27:00,
2010-07-25 01:32:00,67.3,65.5,30.04,East,80,0.0,0.0,94,0.00,,,0.00,WeatherTracker,2010-07-25 06:32:00,
2010-07-25 01:37:00,67.2,65.4,30.04,East,80,0.0,0.0,94,0.00,,,0.00,WeatherTracker,2010-07-25 06:37:00,
2010-07-25 01:42:00,67.1,65.3,30.04,East,80,0.0,0.0,94,0.00,,,0.00,WeatherTracker,2010-07-25 06:42:00,
2010-07-25 01:47:00,67.0,65.2,30.04,East,80,0.0,0.0,94,0.00,,,0.00,WeatherTracker,2010-07-25 06:47:00,
2010-07-25 01:52:00,67.0,65.2,30.04,East,80,0.0,0.0,94,0.00,,,0.00,WeatherTracker,2010-07-25 06:52:00,
2010-07-25 01:57:00,66.9,65.1,30.04,East,80,0.0,0.0,94,0.00,,,0.00,WeatherTracker,2010-07-25 06:57:00,
2010-07-25 02:02:00,66.8,65.3,30.04,East,80,0.0,0.0,95,0.00,,,0.00,WeatherTracker,2010-07-25 07:02:00,
2010-07-25 02:07:00,66.7,65.2,30.04,East,80,0.0,0.0,95,0.00,,,0.00,WeatherTracker,2010-07-25 07:07:00,
2010-07-25 02:12:00,66.6,64.8,30.05,East,80,0.0,0.0,94,0.00,,,0.00,WeatherTracker,2010-07-25 07:12:00,
2010-07-25 02:17:00,66.5,64.7,30.05,East,80,0.0,0.0,94,0.00,,,0.00,WeatherTracker,2010-07-25 07:17:00,
2010-07-25 02:23:00,66.5,64.7,30.05,East,80,0.0,0.0,94,0.00,,,0.00,WeatherTracker,2010-07-25 07:23:00,
2010-07-25 02:28:00,66.3,64.8,30.05,East,80,0.0,0.0,95,0.00,,,0.00,WeatherTracker,2010-07-25 07:28:00,
2010-07-25 02:33:00,66.2,64.7,30.05,East,80,0.0,0.0,95,0.00,,,0.00,WeatherTracker,2010-07-25 07:33:00,
2010-07-25 02:38:00,66.1,64.6,30.05,East,80,0.0,0.0,95,0.00,,,0.00,WeatherTracker,2010-07-25 07:38:00,
2010-07-25 02:43:00,66.0,64.5,30.05,East,80,0.0,0.0,95,0.00,,,0.00,WeatherTracker,2010-07-25 07:43:00,
2010-07-25 02:48:00,65.9,64.4,30.05,East,80,0.0,0.0,95,0.00,,,0.00,WeatherTracker,2010-07-25 07:48:00,
2010-07-25 02:53:00,65.9,64.4,30.05,East,80,0.0,0.0,95,0.00,,,0.00,WeatherTracker,2010-07-25 07:53:00,
2010-07-25 02:58:00,65.9,64.4,30.05,East,80,0.0,0.0,95,0.00,,,0.00,WeatherTracker,2010-07-25 07:58:00,
2010-07-25 03:03:00,65.8,64.3,30.05,East,80,0.0,0.0,95,0.00,,,0.00,WeatherTracker,2010-07-25 08:03:00,
2010-07-25 03:08:00,65.7,64.2,30.05,East,80,0.0,0.0,95,0.00,,,0.00,WeatherTracker,2010-07-25 08:08:00,
2010-07-25 03:13:00,65.6,64.1,30.05,East,80,0.0,0.0,95,0.00,,,0.00,WeatherTracker,2010-07-25 08:13:00,
2010-07-25 03:18:00,65.6,64.1,30.05,East,80,0.0,0.0,95,0.00,,,0.00,WeatherTracker,2010-07-25 08:18:00,
2010-07-25 03:23:00,65.5,64.0,30.05,East,80,0.0,0.0,95,0.00,,,0.00,WeatherTracker,2010-07-25 08:23:00,
2010-07-25 03:28:00,65.5,64.0,30.05,East,80,0.0,0.0,95,0.00,,,0.00,WeatherTracker,2010-07-25 08:28:00,
2010-07-25 03:33:00,65.5,64.0,30.05,East,80,0.0,0.0,95,0.00,,,0.00,WeatherTracker,2010-07-25 08:33:00,
2010-07-25 03:38:00,65.5,64.0,30.05,East,80,0.0,0.0,95,0.00,,,0.00,WeatherTracker,2010-07-25 08:38:00,
2010-07-25 03:43:00,65.4,63.9,30.05,East,80,0.0,0.0,95,0.00,,,0.00,WeatherTracker,2010-07-25 08:43:00,
2010-07-25 03:48:00,65.2,63.7,30.05,East,80,0.0,0.0,95,0.00,,,0.00,WeatherTracker,2010-07-25 08:48:00,
2010-07-25 03:53:00,65.1,63.6,30.05,East,80,0.0,0.0,95,0.00,,,0.00,WeatherTracker,2010-07-25 08:53:00,
2010-07-25 03:58:00,65.0,63.5,30.05,East,80,0.0,0.0,95,0.00,,,0.00,WeatherTracker,2010-07-25 08:58:00,
2010-07-25 04:03:00,65.0,63.5,30.05,East,80,0.0,0.0,95,0.00,,,0.00,WeatherTracker,2010-07-25 09:03:00,
2010-07-25 04:08:00,64.9,63.4,30.05,East,80,0.0,0.0,95,0.00,,,0.00,WeatherTracker,2010-07-25 09:08:00,
2010-07-25 04:13:00,64.8,63.3,30.05,East,80,0.0,0.0,95,0.00,,,0.00,WeatherTracker,2010-07-25 09:13:00,
2010-07-25 04:18:00,64.7,63.2,30.04,East,80,0.0,0.0,95,0.00,,,0.00,WeatherTracker,2010-07-25 09:18:00,
2010-07-25 04:23:00,64.6,63.1,30.04,East,80,0.0,0.0,95,0.00,,,0.00,WeatherTracker,2010-07-25 09:23:00,
2010-07-25 04:28:00,64.5,63.0,30.05,East,80,0.0,0.0,95,0.00,,,0.00,WeatherTracker,2010-07-25 09:28:00,
2010-07-25 04:33:00,64.5,63.0,30.04,East,80,0.0,0.0,95,0.00,,,0.00,WeatherTracker,2010-07-25 09:33:00,
2010-07-25 04:38:00,64.4,62.9,30.05,East,80,0.0,0.0,95,0.00,,,0.00,WeatherTracker,2010-07-25 09:38:00,
2010-07-25 04:44:00,64.3,62.8,30.05,East,80,0.0,0.0,95,0.00,,,0.00,WeatherTracker,2010-07-25 09:44:00,
2010-07-25 04:49:00,64.3,62.8,30.05,East,80,0.0,0.0,95,0.00,,,0.00,WeatherTracker,2010-07-25 09:49:00,
2010-07-25 04:54:00,64.3,62.8,30.05,East,80,0.0,0.0,95,0.00,,,0.00,WeatherTracker,2010-07-25 09:54:00,
2010-07-25 04:59:00,64.3,62.8,30.05,East,80,0.0,0.0,95,0.00,,,0.00,WeatherTracker,2010-07-25 09:59:00,
2010-07-25 05:04:00,64.2,62.7,30.05,East,80,0.0,0.0,95,0.00,,,0.00,WeatherTracker,2010-07-25 10:04:00,
2010-07-25 05:09:00,64.2,62.7,30.05,East,80,0.0,0.0,95,0.00,,,0.00,WeatherTracker,2010-07-25 10:09:00,
2010-07-25 05:14:00,64.2,62.7,30.05,East,80,0.0,0.0,95,0.00,,,0.00,WeatherTracker,2010-07-25 10:14:00,
2010-07-25 05:19:00,64.2,63.0,30.05,East,80,0.0,0.0,96,0.00,,,0.00,WeatherTracker,2010-07-25 10:19:00,
2010-07-25 05:24:00,64.3,63.1,30.05,East,80,0.0,0.0,96,0.00,,,0.00,WeatherTracker,2010-07-25 10:24:00,
2010-07-25 05:29:00,64.4,63.2,30.05,East,80,0.0,0.0,96,0.00,,,0.00,WeatherTracker,2010-07-25 10:29:00,
2010-07-25 05:34:00,64.5,63.3,30.05,East,80,0.0,0.0,96,0.00,,,0.00,WeatherTracker,2010-07-25 10:34:00,
2010-07-25 05:39:00,64.6,63.4,30.05,East,80,0.0,0.0,96,0.00,,,0.00,WeatherTracker,2010-07-25 10:39:00,
2010-07-25 05:44:00,64.6,63.4,30.05,East,80,0.0,0.0,96,0.00,,,0.00,WeatherTracker,2010-07-25 10:44:00,
2010-07-25 05:49:00,64.6,63.4,30.05,East,80,0.0,0.0,96,0.00,,,0.00,WeatherTracker,2010-07-25 10:49:00,
2010-07-25 05:54:00,64.7,63.5,30.05,East,80,0.0,0.0,96,0.00,,,0.00,WeatherTracker,2010-07-25 10:54:00,
2010-07-25 05:59:00,64.7,63.2,30.05,East,80,0.0,0.0,95,0.00,,,0.00,WeatherTracker,2010-07-25 10:59:00,
2010-07-25 06:04:00,64.7,63.2,30.05,East,80,1.0,0.0,95,0.00,,,0.00,WeatherTracker,2010-07-25 11:04:00,
2010-07-25 06:09:00,64.8,63.3,30.06,East,80,0.0,0.0,95,0.00,,,0.00,WeatherTracker,2010-07-25 11:09:00,
2010-07-25 06:14:00,64.8,63.3,30.06,East,80,0.0,0.0,95,0.00,,,0.00,WeatherTracker,2010-07-25 11:14:00,
2010-07-25 06:19:00,64.9,63.4,30.05,East,89,1.0,0.0,95,0.00,,,0.00,WeatherTracker,2010-07-25 11:19:00,
2010-07-25 06:24:00,65.0,63.5,30.06,East,88,0.0,0.0,95,0.00,,,0.00,WeatherTracker,2010-07-25 11:24:00,
2010-07-25 06:30:00,65.0,63.5,30.06,NNW,342,0.0,0.0,95,0.00,,,0.00,WeatherTracker,2010-07-25 11:30:00,
2010-07-25 06:35:00,65.1,63.6,30.06,NNW,343,1.0,0.0,95,0.00,,,0.00,WeatherTracker,2010-07-25 11:35:00,
2010-07-25 06:40:00,65.1,63.6,30.06,NNW,343,0.0,0.0,95,0.00,,,0.00,WeatherTracker,2010-07-25 11:40:00,
2010-07-25 06:45:00,65.0,63.5,30.06,NNW,331,0.0,0.0,95,0.00,,,0.00,WeatherTracker,2010-07-25 11:45:00,
2010-07-25 06:50:00,65.1,63.6,30.06,NE,34,0.0,0.0,95,0.00,,,0.00,WeatherTracker,2010-07-25 11:50:00,
2010-07-25 06:55:00,65.2,63.7,30.06,NNE,25,0.0,0.0,95,0.00,,,0.00,WeatherTracker,2010-07-25 11:55:00,
2010-07-25 07:00:00,65.4,63.9,30.06,NNE,25,2.0,0.0,95,0.00,,,0.00,WeatherTracker,2010-07-25 12:00:00,
2010-07-25 07:05:00,65.4,63.9,30.06,NNW,348,3.0,0.0,95,0.00,,,0.00,WeatherTracker,2010-07-25 12:05:00,
2010-07-25 07:10:00,65.5,64.0,30.07,North,9,0.0,0.0,95,0.00,,,0.00,WeatherTracker,2010-07-25 12:10:00,
2010-07-25 07:15:00,65.6,64.1,30.07,North,9,0.0,0.0,95,0.00,,,0.00,WeatherTracker,2010-07-25 12:15:00,
2010-07-25 07:20:00,65.7,64.2,30.07,North,9,0.0,0.0,95,0.00,,,0.00,WeatherTracker,2010-07-25 12:20:00,
2010-07-25 07:25:00,65.8,64.0,30.07,North,9,3.0,0.0,94,0.00,,,0.00,WeatherTracker,2010-07-25 12:25:00,
2010-07-25 07:30:00,65.9,64.1,30.07,North,9,0.0,0.0,94,0.00,,,0.00,WeatherTracker,2010-07-25 12:30:00,
2010-07-25 07:35:00,66.2,64.4,30.07,North,9,0.0,0.0,94,0.00,,,0.00,WeatherTracker,2010-07-25 12:35:00,
2010-07-25 07:40:00,66.4,64.6,30.07,NNE,25,0.0,0.0,94,0.00,,,0.00,WeatherTracker,2010-07-25 12:40:00,
2010-07-25 07:45:00,66.7,64.9,30.06,NNE,26,0.0,0.0,94,0.00,,,0.00,WeatherTracker,2010-07-25 12:45:00,
2010-07-25 07:50:00,66.9,65.1,30.07,NNE,26,0.0,0.0,94,0.00,,,0.00,WeatherTracker,2010-07-25 12:50:00,
2010-07-25 07:55:00,67.3,65.5,30.07,North,350,0.0,0.0,94,0.00,,,0.00,WeatherTracker,2010-07-25 12:55:00,
2010-07-25 08:00:00,67.6,65.5,30.07,NNW,344,1.0,0.0,93,0.00,,,0.00,WeatherTracker,2010-07-25 13:00:00,
2010-07-25 08:05:00,67.9,65.5,30.07,NNE,33,2.0,0.0,92,0.00,,,0.00,WeatherTracker,2010-07-25 13:05:00,
2010-07-25 08:10:00,68.6,65.5,30.07,NNE,18,0.0,0.0,90,0.00,,,0.00,WeatherTracker,2010-07-25 13:10:00,
2010-07-25 08:16:00,69.0,65.6,30.07,ENE,59,0.0,0.0,89,0.00,,,0.00,WeatherTracker,2010-07-25 13:16:00,
2010-07-25 08:21:00,69.5,65.8,30.08,NNE,32,1.0,0.0,88,0.00,,,0.00,WeatherTracker,2010-07-25 13:21:00,
2010-07-25 08:26:00,69.9,65.5,30.08,North,9,2.0,0.0,86,0.00,,,0.00,WeatherTracker,2010-07-25 13:26:00,
2010-07-25 08:31:00,70.4,65.7,30.08,WNW,300,0.0,0.0,85,0.00,,,0.00,WeatherTracker,2010-07-25 13:31:00,
2010-07-25 08:36:00,70.7,66.0,30.08,NNE,24,0.0,0.0,85,0.00,,,0.00,WeatherTracker,2010-07-25 13:36:00,
2010-07-25 08:41:00,71.0,65.9,30.08,NNE,24,0.0,0.0,84,0.00,,,0.00,WeatherTracker,2010-07-25 13:41:00,
2010-07-25 08:46:00,71.2,66.5,30.09,NNE,24,0.0,0.0,85,0.00,,,0.00,WeatherTracker,2010-07-25 13:46:00,
2010-07-25 08:51:00,71.4,66.6,30.09,NNE,24,0.0,0.0,85,0.00,,,0.00,WeatherTracker,2010-07-25 13:51:00,
2010-07-25 08:56:00,71.6,67.2,30.09,NNE,24,2.0,0.0,86,0.00,,,0.00,WeatherTracker,2010-07-25 13:56:00,
2010-07-25 09:01:00,71.9,66.8,30.09,NE,38,3.0,0.0,84,0.00,,,0.00,WeatherTracker,2010-07-25 14:01:00,
2010-07-25 09:06:00,72.4,66.9,30.09,NE,39,1.0,0.0,83,0.00,,,0.00,WeatherTracker,2010-07-25 14:06:00,
2010-07-25 09:11:00,73.0,66.8,30.09,NE,39,0.0,0.0,81,0.00,,,0.00,WeatherTracker,2010-07-25 14:11:00,
2010-07-25 09:16:00,73.7,67.5,30.09,ENE,73,1.0,0.0,81,0.00,,,0.00,WeatherTracker,2010-07-25 14:16:00,
2010-07-25 09:21:00,74.4,67.1,30.09,ENE,73,0.0,0.0,78,0.00,,,0.00,WeatherTracker,2010-07-25 14:21:00,
2010-07-25 09:26:00,75.1,66.6,30.09,North,350,0.0,0.0,75,0.00,,,0.00,WeatherTracker,2010-07-25 14:26:00,
2010-07-25 09:32:00,75.9,66.2,30.09,North,350,0.0,0.0,72,0.00,,,0.00,WeatherTracker,2010-07-25 14:32:00,
2010-07-25 09:37:00,76.4,67.5,30.09,NNE,16,2.0,0.0,74,0.00,,,0.00,WeatherTracker,2010-07-25 14:37:00,
2010-07-25 09:42:00,76.7,67.4,30.09,WNW,284,2.0,0.0,73,0.00,,,0.00,WeatherTracker,2010-07-25 14:42:00,
2010-07-25 09:47:00,76.8,66.3,30.09,NNW,334,2.0,0.0,70,0.00,,,0.00,WeatherTracker,2010-07-25 14:47:00,
2010-07-25 09:52:00,77.0,67.7,30.09,ENE,64,4.0,0.0,73,0.00,,,0.00,WeatherTracker,2010-07-25 14:52:00,
2010-07-25 09:57:00,77.1,66.1,30.09,NNE,17,4.0,0.0,69,0.00,,,0.00,WeatherTracker,2010-07-25 14:57:00,
2010-07-25 10:02:00,77.5,66.5,30.09,NE,54,0.0,0.0,69,0.00,,,0.00,WeatherTracker,2010-07-25 15:02:00,
2010-07-25 10:07:00,77.7,65.8,30.09,ESE,117,0.0,0.0,67,0.00,,,0.00,WeatherTracker,2010-07-25 15:07:00,
2010-07-25 10:12:00,78.1,65.8,30.09,ENE,67,1.0,0.0,66,0.00,,,0.00,WeatherTracker,2010-07-25 15:12:00,
2010-07-25 10:17:00,78.8,68.2,30.09,ENE,67,0.0,0.0,70,0.00,,,0.00,WeatherTracker,2010-07-25 15:17:00,
2010-07-25 10:22:00,79.3,66.0,30.09,NNW,337,0.0,0.0,64,0.00,,,0.00,WeatherTracker,2010-07-25 15:22:00,
2010-07-25 10:27:00,79.4,64.3,30.09,NE,37,0.0,0.0,60,0.00,,,0.00,WeatherTracker,2010-07-25 15:27:00,
2010-07-25 10:32:00,79.3,64.7,30.09,NE,45,1.0,0.0,61,0.00,,,0.00,WeatherTracker,2010-07-25 15:32:00,
2010-07-25 10:37:00,79.4,66.1,30.10,North,355,1.0,0.0,64,0.00,,,0.00,WeatherTracker,2010-07-25 15:37:00,
2010-07-25 10:42:00,79.4,65.7,30.10,NNE,17,4.0,0.0,63,0.00,,,0.00,WeatherTracker,2010-07-25 15:42:00,
2010-07-25 10:47:00,79.2,64.6,30.10,NE,48,0.0,0.0,61,0.00,,,0.00,WeatherTracker,2010-07-25 15:47:00,
2010-07-25 10:52:00,79.6,65.9,30.09,North,360,0.0,0.0,63,0.00,,,0.00,WeatherTracker,2010-07-25 15:52:00,
2010-07-25 10:57:00,79.9,65.7,30.10,ENE,63,2.0,0.0,62,0.00,,,0.00,WeatherTracker,2010-07-25 15:57:00,
2010-07-25 11:02:00,79.6,66.3,30.10,ENE,74,1.0,0.0,64,0.00,,,0.00,WeatherTracker,2010-07-25 16:02:00,
2010-07-25 11:07:00,79.7,64.1,30.10,NNW,329,2.0,0.0,59,0.00,,,0.00,WeatherTracker,2010-07-25 16:07:00,
2010-07-25 11:12:00,80.2,65.5,30.10,North,10,1.0,0.0,61,0.00,,,0.00,WeatherTracker,2010-07-25 16:12:00,
2010-07-25 11:17:00,80.6,65.4,30.09,ESE,110,1.0,0.0,60,0.00,,,0.00,WeatherTracker,2010-07-25 16:17:00,
2010-07-25 11:22:00,80.5,63.8,30.10,NE,38,1.0,0.0,57,0.00,,,0.00,WeatherTracker,2010-07-25 16:22:00,
2010-07-25 11:27:00,79.9,63.3,30.10,ENE,64,0.0,0.0,57,0.00,,,0.00,WeatherTracker,2010-07-25 16:27:00,
2010-07-25 11:33:00,80.0,63.4,30.10,ENE,57,1.0,0.0,57,0.00,,,0.00,WeatherTracker,2010-07-25 16:33:00,
2010-07-25 11:38:00,80.2,64.1,30.10,East,80,3.0,0.0,58,0.00,,,0.00,WeatherTracker,2010-07-25 16:38:00,
2010-07-25 11:43:00,80.7,64.5,30.09,NE,37,3.0,0.0,58,0.00,,,0.00,WeatherTracker,2010-07-25 16:43:00,
2010-07-25 11:48:00,80.5,64.8,30.10,North,10,3.0,0.0,59,0.00,,,0.00,WeatherTracker,2010-07-25 16:48:00,
2010-07-25 11:53:00,80.3,65.6,30.10,West,262,0.0,0.0,61,0.00,,,0.00,WeatherTracker,2010-07-25 16:53:00,
2010-07-25 11:58:00,80.5,64.8,30.10,NNW,335,2.0,0.0,59,0.00,,,0.00,WeatherTracker,2010-07-25 16:58:00,
2010-07-25 12:03:00,80.7,64.0,30.10,NNE,29,2.0,0.0,57,0.00,,,0.00,WeatherTracker,2010-07-25 17:03:00,
2010-07-25 12:08:00,80.9,65.7,30.10,North,360,0.0,0.0,60,0.00,,,0.00,WeatherTracker,2010-07-25 17:08:00,
2010-07-25 12:13:00,81.4,66.6,30.09,North,5,1.0,0.0,61,0.00,,,0.00,WeatherTracker,2010-07-25 17:13:00,
2010-07-25 12:18:00,81.5,64.3,30.09,North,9,0.0,0.0,56,0.00,,,0.00,WeatherTracker,2010-07-25 17:18:00,
2010-07-25 12:23:00,81.8,64.0,30.09,SW,230,1.0,0.0,55,0.00,,,0.00,WeatherTracker,2010-07-25 17:23:00,
2010-07-25 12:28:00,82.0,64.2,30.09,NNW,331,1.0,0.0,55,0.00,,,0.00,WeatherTracker,2010-07-25 17:28:00,
2010-07-25 12:33:00,82.1,64.3,30.09,West,260,1.0,0.0,55,0.00,,,0.00,WeatherTracker,2010-07-25 17:33:00,
2010-07-25 12:38:00,82.3,64.0,30.09,North,360,2.0,0.0,54,0.00,,,0.00,WeatherTracker,2010-07-25 17:38:00,
2010-07-25 12:43:00,82.4,64.6,30.09,NNE,19,4.0,0.0,55,0.00,,,0.00,WeatherTracker,2010-07-25 17:43:00,
2010-07-25 12:48:00,82.1,64.3,30.09,SSW,211,1.0,0.0,55,0.00,,,0.00,WeatherTracker,2010-07-25 17:48:00,
2010-07-25 12:53:00,82.1,65.3,30.09,West,267,3.0,0.0,57,0.00,,,0.00,WeatherTracker,2010-07-25 17:53:00,
2010-07-25 12:58:00,81.9,65.6,30.09,East,84,0.0,0.0,58,0.00,,,0.00,WeatherTracker,2010-07-25 17:58:00,
2010-07-25 13:03:00,82.0,63.7,30.09,WSW,252,2.0,0.0,54,0.00,,,0.00,WeatherTracker,2010-07-25 18:03:00,
2010-07-25 13:08:00,82.1,64.8,30.09,North,360,1.0,0.0,56,0.00,,,0.00,WeatherTracker,2010-07-25 18:08:00,
2010-07-25 13:13:00,82.2,64.4,30.09,NNW,335,5.0,0.0,55,0.00,,,0.00,WeatherTracker,2010-07-25 18:13:00,
2010-07-25 13:18:00,82.4,65.6,30.09,NNE,30,2.0,0.0,57,0.00,,,0.00,WeatherTracker,2010-07-25 18:18:00,
2010-07-25 13:23:00,82.2,62.8,30.09,NNE,15,0.0,0.0,52,0.00,,,0.00,WeatherTracker,2010-07-25 18:23:00,
2010-07-25 13:28:00,82.1,64.8,30.09,NNW,348,0.0,0.0,56,0.00,,,0.00,WeatherTracker,2010-07-25 18:28:00,
2010-07-25 13:33:00,82.9,66.6,30.08,West,274,4.0,0.0,58,0.00,,,0.00,WeatherTracker,2010-07-25 18:33:00,
2010-07-25 13:38:00,83.6,67.2,30.08,NNE,33,1.0,0.0,58,0.00,,,0.00,WeatherTracker,2010-07-25 18:38:00,
2010-07-25 13:43:00,83.4,66.0,30.08,North,10,1.0,0.0,56,0.00,,,0.00,WeatherTracker,2010-07-25 18:43:00,
2010-07-25 13:49:00,83.0,64.1,30.08,WSW,242,0.0,0.0,53,0.00,,,0.00,WeatherTracker,2010-07-25 18:49:00,
2010-07-25 13:54:00,83.6,66.2,30.08,ESE,102,0.0,0.0,56,0.00,,,0.00,WeatherTracker,2010-07-25 18:54:00,
2010-07-25 13:59:00,83.5,65.1,30.08,SW,227,2.0,0.0,54,0.00,,,0.00,WeatherTracker,2010-07-25 18:59:00,
2010-07-25 14:04:00,83.4,64.4,30.08,ENE,65,3.0,0.0,53,0.00,,,0.00,WeatherTracker,2010-07-25 19:04:00,
2010-07-25 14:09:00,83.2,66.9,30.08,NNW,348,2.0,0.0,58,0.00,,,0.00,WeatherTracker,2010-07-25 19:09:00,
2010-07-25 14:14:00,82.8,65.0,30.09,NNE,16,0.0,0.0,55,0.00,,,0.00,WeatherTracker,2010-07-25 19:14:00,
2010-07-25 14:19:00,82.5,64.7,30.08,North,9,0.0,0.0,55,0.00,,,0.00,WeatherTracker,2010-07-25 19:19:00,
2010-07-25 14:24:00,82.5,65.2,30.09,ENE,67,1.0,0.0,56,0.00,,,0.00,WeatherTracker,2010-07-25 19:24:00,
2010-07-25 14:29:00,82.8,65.0,30.09,WSW,246,3.0,0.0,55,0.00,,,0.00,WeatherTracker,2010-07-25 19:29:00,
2010-07-25 14:34:00,83.5,65.6,30.08,WSW,246,3.0,0.0,55,0.00,,,0.00,WeatherTracker,2010-07-25 19:34:00,
2010-07-25 14:39:00,83.5,65.6,30.08,North,5,3.0,0.0,55,0.00,,,0.00,WeatherTracker,2010-07-25 19:39:00,
2010-07-25 14:44:00,83.8,66.4,30.08,NE,53,0.0,0.0,56,0.00,,,0.00,WeatherTracker,2010-07-25 19:44:00,
2010-07-25 14:49:00,83.4,66.0,30.09,North,10,0.0,0.0,56,0.00,,,0.00,WeatherTracker,2010-07-25 19:49:00,
2010-07-25 14:54:00,82.6,66.8,30.09,North,349,2.0,0.0,59,0.00,,,0.00,WeatherTracker,2010-07-25 19:54:00,
2010-07-25 14:59:00,81.6,65.4,30.09,NNE,24,0.0,0.0,58,0.00,,,0.00,WeatherTracker,2010-07-25 19:59:00,
2010-07-25 15:04:00,80.8,65.6,30.09,NNE,24,0.0,0.0,60,0.00,,,0.00,WeatherTracker,2010-07-25 20:04:00,
2010-07-25 15:09:00,80.2,66.0,30.09,NNE,24,0.0,0.0,62,0.00,,,0.00,WeatherTracker,2010-07-25 20:09:00,
2010-07-25 15:14:00,79.8,67.4,30.09,NNE,24,0.0,0.0,66,0.00,,,0.00,WeatherTracker,2010-07-25 20:14:00,
2010-07-25 15:19:00,79.6,68.1,30.08,NNE,24,0.0,0.0,68,0.00,,,0.00,WeatherTracker,2010-07-25 20:19:00,
2010-07-25 15:24:00,79.6,67.2,30.08,NNE,24,0.0,0.0,66,0.00,,,0.00,WeatherTracker,2010-07-25 20:24:00,
2010-07-25 15:29:00,80.6,65.9,30.08,NNW,345,0.0,0.0,61,0.00,,,0.00,WeatherTracker,2010-07-25 20:29:00,
2010-07-25 15:34:00,82.4,66.1,30.08,NNW,341,1.0,0.0,58,0.00,,,0.00,WeatherTracker,2010-07-25 20:34:00,
2010-07-25 15:39:00,83.3,64.4,30.08,NE,47,2.0,0.0,53,0.00,,,0.00,WeatherTracker,2010-07-25 20:39:00,
2010-07-25 15:45:00,83.4,67.5,30.08,NE,48,2.0,0.0,59,0.00,,,0.00,WeatherTracker,2010-07-25 20:45:00,
2010-07-25 15:50:00,83.6,66.2,30.08,East,87,0.0,0.0,56,0.00,,,0.00,WeatherTracker,2010-07-25 20:50:00,
2010-07-25 15:55:00,83.0,66.2,30.08,ENE,78,1.0,0.0,57,0.00,,,0.00,WeatherTracker,2010-07-25 20:55:00,
2010-07-25 16:00:00,82.9,64.0,30.08,ENE,78,1.0,0.0,53,0.00,,,0.00,WeatherTracker,2010-07-25 21:00:00,
2010-07-25 16:05:00,83.9,64.4,30.07,East,79,1.0,0.0,52,0.00,,,0.00,WeatherTracker,2010-07-25 21:05:00,
2010-07-25 16:10:00,84.7,65.6,30.07,NW,317,0.0,0.0,53,0.00,,,0.00,WeatherTracker,2010-07-25 21:10:00,
2010-07-25 16:15:00,85.0,65.9,30.07,NW,315,1.0,0.0,53,0.00,,,0.00,WeatherTracker,2010-07-25 21:15:00,
2010-07-25 16:20:00,85.4,67.4,30.07,NW,314,0.0,0.0,55,0.00,,,0.00,WeatherTracker,2010-07-25 21:20:00,
2010-07-25 16:25:00,85.7,64.9,30.07,NW,315,0.0,0.0,50,0.00,,,0.00,WeatherTracker,2010-07-25 21:25:00,
2010-07-25 16:30:00,85.9,66.2,30.07,NW,314,0.0,0.0,52,0.00,,,0.00,WeatherTracker,2010-07-25 21:30:00,
2010-07-25 16:35:00,85.9,67.3,30.06,NNE,13,3.0,0.0,54,0.00,,,0.00,WeatherTracker,2010-07-25 21:35:00,
2010-07-25 16:40:00,85.6,63.6,30.06,NNE,21,0.0,0.0,48,0.00,,,0.00,WeatherTracker,2010-07-25 21:40:00,
2010-07-25 16:45:00,84.7,66.2,30.07,NNE,21,0.0,0.0,54,0.00,,,0.00,WeatherTracker,2010-07-25 21:45:00,
2010-07-25 16:50:00,84.1,66.2,30.06,NNE,21,0.0,0.0,55,0.00,,,0.00,WeatherTracker,2010-07-25 21:50:00,
2010-07-25 16:55:00,84.0,66.6,30.06,NNE,21,0.0,0.0,56,0.00,,,0.00,WeatherTracker,2010-07-25 21:55:00,
2010-07-25 17:00:00,83.9,64.9,30.06,NNE,21,0.0,0.0,53,0.00,,,0.00,WeatherTracker,2010-07-25 22:00:00,
2010-07-25 17:05:00,83.7,64.7,30.06,NNE,21,0.0,0.0,53,0.00,,,0.00,WeatherTracker,2010-07-25 22:05:00,
2010-07-25 17:10:00,83.7,66.8,30.06,NNE,25,0.0,0.0,57,0.00,,,0.00,WeatherTracker,2010-07-25 22:10:00,
2010-07-25 17:16:00,83.4,67.0,30.06,NNE,25,0.0,0.0,58,0.00,,,0.00,WeatherTracker,2010-07-25 22:16:00,
2010-07-25 17:20:00,83.2,64.8,30.05,South,173,0.0,0.0,54,0.00,,,0.00,WeatherTracker,2010-07-25 22:20:00,
2010-07-25 17:26:00,83.3,65.9,30.05,SSE,157,1.0,0.0,56,0.00,,,0.00,WeatherTracker,2010-07-25 22:26:00,
2010-07-25 17:31:00,82.5,64.7,30.05,SSE,157,0.0,0.0,55,0.00,,,0.00,WeatherTracker,2010-07-25 22:31:00,
2010-07-25 17:36:00,82.1,67.8,30.05,SSE,157,0.0,0.0,62,0.00,,,0.00,WeatherTracker,2010-07-25 22:36:00,
2010-07-25 17:41:00,81.5,66.2,30.05,SSE,157,0.0,0.0,60,0.00,,,0.00,WeatherTracker,2010-07-25 22:41:00,
2010-07-25 17:46:00,81.1,67.7,30.05,SSE,157,0.0,0.0,64,0.00,,,0.00,WeatherTracker,2010-07-25 22:46:00,
2010-07-25 17:51:00,80.4,68.0,30.05,SSE,157,0.0,0.0,66,0.00,,,0.00,WeatherTracker,2010-07-25 22:51:00,
2010-07-25 17:56:00,79.9,68.4,30.05,SSE,157,0.0,0.0,68,0.00,,,0.00,WeatherTracker,2010-07-25 22:56:00,
2010-07-25 18:01:00,79.3,64.2,30.05,SSE,157,0.0,0.0,60,0.00,,,0.00,WeatherTracker,2010-07-25 23:01:00,
2010-07-25 18:06:00,79.4,67.9,30.05,SSE,157,0.0,0.0,68,0.00,,,0.00,WeatherTracker,2010-07-25 23:06:00,
2010-07-25 18:11:00,78.9,67.4,30.05,SSE,157,0.0,0.0,68,0.00,,,0.00,WeatherTracker,2010-07-25 23:11:00,
2010-07-25 18:16:00,78.7,68.1,30.05,SSE,157,0.0,0.0,70,0.00,,,0.00,WeatherTracker,2010-07-25 23:16:00,
2010-07-25 18:21:00,78.5,69.1,30.05,SSE,157,0.0,0.0,73,0.00,,,0.00,WeatherTracker,2010-07-25 23:21:00,
2010-07-25 18:26:00,78.4,69.8,30.05,SSE,157,0.0,0.0,75,0.00,,,0.00,WeatherTracker,2010-07-25 23:26:00,
2010-07-25 18:31:00,78.2,69.6,30.05,SSE,157,0.0,0.0,75,0.00,,,0.00,WeatherTracker,2010-07-25 23:31:00,
2010-07-25 18:36:00,78.0,69.8,30.05,SSE,157,0.0,0.0,76,0.00,,,0.00,WeatherTracker,2010-07-25 23:36:00,
2010-07-25 18:41:00,77.9,68.9,30.05,SSE,157,0.0,0.0,74,0.00,,,0.00,WeatherTracker,2010-07-25 23:41:00,
2010-07-25 18:46:00,77.8,69.2,30.05,SSE,157,0.0,0.0,75,0.00,,,0.00,WeatherTracker,2010-07-25 23:46:00,
2010-07-25 18:51:00,77.8,69.6,30.05,SSE,157,0.0,0.0,76,0.00,,,0.00,WeatherTracker,2010-07-25 23:51:00,
2010-07-25 18:56:00,77.6,69.4,30.05,SSE,157,0.0,0.0,76,0.00,,,0.00,WeatherTracker,2010-07-25 23:56:00,
2010-07-25 19:01:00,77.5,69.7,30.04,SSE,157,0.0,0.0,77,0.00,,,0.00,WeatherTracker,2010-07-26 00:01:00,
2010-07-25 19:06:00,77.3,69.5,30.04,SSE,157,0.0,0.0,77,0.00,,,0.00,WeatherTracker,2010-07-26 00:06:00,
2010-07-25 19:11:00,77.2,69.8,30.04,SSE,157,0.0,0.0,78,0.00,,,0.00,WeatherTracker,2010-07-26 00:11:00,
2010-07-25 19:16:00,76.9,69.5,30.04,SSE,157,0.0,0.0,78,0.00,,,0.00,WeatherTracker,2010-07-26 00:16:00,
2010-07-25 19:21:00,76.6,69.2,30.04,SSE,157,0.0,0.0,78,0.00,,,0.00,WeatherTracker,2010-07-26 00:21:00,
2010-07-25 19:26:00,76.5,68.7,30.04,SSE,157,0.0,0.0,77,0.00,,,0.00,WeatherTracker,2010-07-26 00:26:00,
2010-07-25 19:31:00,76.2,68.1,30.04,SSE,157,0.0,0.0,76,0.00,,,0.00,WeatherTracker,2010-07-26 00:31:00,
2010-07-25 19:37:00,75.9,67.8,30.04,SSE,157,0.0,0.0,76,0.00,,,0.00,WeatherTracker,2010-07-26 00:37:00,
2010-07-25 19:42:00,75.5,67.8,30.04,SSE,157,0.0,0.0,77,0.00,,,0.00,WeatherTracker,2010-07-26 00:42:00,
2010-07-25 19:47:00,75.3,67.6,30.04,SSE,157,0.0,0.0,77,0.00,,,0.00,WeatherTracker,2010-07-26 00:47:00,
2010-07-25 19:52:00,75.1,68.1,30.05,SSE,157,0.0,0.0,79,0.00,,,0.00,WeatherTracker,2010-07-26 00:52:00,
2010-07-25 19:57:00,74.9,68.3,30.04,SSE,157,0.0,0.0,80,0.00,,,0.00,WeatherTracker,2010-07-26 00:57:00,
2010-07-25 20:02:00,74.7,68.1,30.04,SSE,157,0.0,0.0,80,0.00,,,0.00,WeatherTracker,2010-07-26 01:02:00,
2010-07-25 20:07:00,74.6,69.1,30.04,SSE,157,0.0,0.0,83,0.00,,,0.00,WeatherTracker,2010-07-26 01:07:00,
2010-07-25 20:12:00,74.4,68.9,30.04,SSE,157,0.0,0.0,83,0.00,,,0.00,WeatherTracker,2010-07-26 01:12:00,
2010-07-25 20:17:00,74.2,69.0,30.04,SSE,157,0.0,0.0,84,0.00,,,0.00,WeatherTracker,2010-07-26 01:17:00,
2010-07-25 20:22:00,74.1,69.3,30.04,SSE,157,0.0,0.0,85,0.00,,,0.00,WeatherTracker,2010-07-26 01:22:00,
2010-07-25 20:27:00,73.8,69.0,30.04,SSE,157,0.0,0.0,85,0.00,,,0.00,WeatherTracker,2010-07-26 01:27:00,
2010-07-25 20:32:00,73.5,69.0,30.04,SSE,157,0.0,0.0,86,0.00,,,0.00,WeatherTracker,2010-07-26 01:32:00,
2010-07-25 20:37:00,73.2,69.1,30.04,SSE,157,0.0,0.0,87,0.00,,,0.00,WeatherTracker,2010-07-26 01:37:00,
2010-07-25 20:42:00,73.0,68.9,30.04,SSE,157,0.0,0.0,87,0.00,,,0.00,WeatherTracker,2010-07-26 01:42:00,
2010-07-25 20:47:00,72.6,68.5,30.04,SSE,157,0.0,0.0,87,0.00,,,0.00,WeatherTracker,2010-07-26 01:47:00,
2010-07-25 20:52:00,72.4,68.3,30.04,SSE,157,0.0,0.0,87,0.00,,,0.00,WeatherTracker,2010-07-26 01:52:00,
2010-07-25 20:57:00,72.2,68.4,30.04,SSE,157,0.0,0.0,88,0.00,,,0.00,WeatherTracker,2010-07-26 01:57:00,
2010-07-25 21:02:00,72.0,68.2,30.03,SSE,157,0.0,0.0,88,0.00,,,0.00,WeatherTracker,2010-07-26 02:02:00,
2010-07-25 21:07:00,71.8,68.4,30.03,SSE,157,0.0,0.0,89,0.00,,,0.00,WeatherTracker,2010-07-26 02:07:00,
2010-07-25 21:12:00,71.6,68.2,30.04,SSE,157,0.0,0.0,89,0.00,,,0.00,WeatherTracker,2010-07-26 02:12:00,
2010-07-25 21:17:00,71.5,68.1,30.04,SSE,157,0.0,0.0,89,0.00,,,0.00,WeatherTracker,2010-07-26 02:17:00,
2010-07-25 21:22:00,71.3,67.9,30.04,SSE,157,0.0,0.0,89,0.00,,,0.00,WeatherTracker,2010-07-26 02:22:00,
2010-07-25 21:27:00,71.2,68.1,30.04,SSE,157,0.0,0.0,90,0.00,,,0.00,WeatherTracker,2010-07-26 02:27:00,
2010-07-25 21:32:00,70.9,67.8,30.04,SSE,157,0.0,0.0,90,0.00,,,0.00,WeatherTracker,2010-07-26 02:32:00,
2010-07-25 21:37:00,70.7,67.6,30.05,SSE,157,0.0,0.0,90,0.00,,,0.00,WeatherTracker,2010-07-26 02:37:00,
2010-07-25 21:42:00,70.6,67.5,30.05,SSE,157,0.0,0.0,90,0.00,,,0.00,WeatherTracker,2010-07-26 02:42:00,
2010-07-25 21:47:00,70.4,67.3,30.05,SSE,157,0.0,0.0,90,0.00,,,0.00,WeatherTracker,2010-07-26 02:47:00,
2010-07-25 21:52:00,70.3,67.5,30.05,SSE,157,0.0,0.0,91,0.00,,,0.00,WeatherTracker,2010-07-26 02:52:00,
2010-07-25 21:57:00,70.2,67.4,30.05,SSE,157,0.0,0.0,91,0.00,,,0.00,WeatherTracker,2010-07-26 02:57:00,
2010-07-25 22:02:00,70.0,67.2,30.05,SSE,157,0.0,0.0,91,0.00,,,0.00,WeatherTracker,2010-07-26 03:02:00,
2010-07-25 22:07:00,69.8,67.0,30.05,SSE,157,0.0,0.0,91,0.00,,,0.00,WeatherTracker,2010-07-26 03:07:00,
2010-07-25 22:13:00,69.7,66.9,30.05,SSE,157,0.0,0.0,91,0.00,,,0.00,WeatherTracker,2010-07-26 03:13:00,
2010-07-25 22:18:00,69.5,66.8,30.06,SSE,157,0.0,0.0,91,0.00,,,0.00,WeatherTracker,2010-07-26 03:18:00,
2010-07-25 22:23:00,69.4,67.0,30.06,SSE,157,0.0,0.0,92,0.00,,,0.00,WeatherTracker,2010-07-26 03:23:00,
2010-07-25 22:28:00,69.3,66.9,30.06,SSE,157,0.0,0.0,92,0.00,,,0.00,WeatherTracker,2010-07-26 03:28:00,
2010-07-25 22:33:00,69.2,66.8,30.06,SSE,157,0.0,0.0,92,0.00,,,0.00,WeatherTracker,2010-07-26 03:33:00,
2010-07-25 22:38:00,69.1,66.7,30.06,SSE,157,0.0,0.0,92,0.00,,,0.00,WeatherTracker,2010-07-26 03:38:00,
2010-07-25 22:43:00,69.0,66.6,30.06,SSE,157,0.0,0.0,92,0.00,,,0.00,WeatherTracker,2010-07-26 03:43:00,
2010-07-25 22:48:00,68.9,66.5,30.06,SSE,157,0.0,0.0,92,0.00,,,0.00,WeatherTracker,2010-07-26 03:48:00,
2010-07-25 22:53:00,68.8,66.7,30.06,SSE,157,0.0,0.0,93,0.00,,,0.00,WeatherTracker,2010-07-26 03:53:00,
2010-07-25 22:58:00,68.8,66.7,30.06,SSE,157,0.0,0.0,93,0.00,,,0.00,WeatherTracker,2010-07-26 03:58:00,
2010-07-25 23:00:00,68.8,66.7,30.06,SSE,157,0.0,0.0,93,0.00,,,0.00,WeatherTracker,2010-07-26 04:00:00,
2010-07-25 23:05:00,68.7,66.6,30.06,SSE,157,0.0,0.0,93,0.00,,,0.00,WeatherTracker,2010-07-26 04:05:00,
2010-07-25 23:10:00,68.7,66.6,30.06,SSE,157,0.0,0.0,93,0.00,,,0.00,WeatherTracker,2010-07-26 04:10:00,
2010-07-25 23:15:00,68.6,66.5,30.06,SSE,157,0.0,0.0,93,0.00,,,0.00,WeatherTracker,2010-07-26 04:15:00,
2010-07-25 23:20:00,68.5,66.4,30.06,SSE,157,0.0,0.0,93,0.00,,,0.00,WeatherTracker,2010-07-26 04:20:00,
2010-07-25 23:25:00,68.5,66.4,30.06,SSE,157,0.0,0.0,93,0.00,,,0.00,WeatherTracker,2010-07-26 04:25:00,
2010-07-25 23:30:00,68.4,66.3,30.06,SSE,157,0.0,0.0,93,0.00,,,0.00,WeatherTracker,2010-07-26 04:30:00,
2010-07-25 23:35:00,68.3,66.5,30.06,SSE,157,0.0,0.0,94,0.00,,,0.00,WeatherTracker,2010-07-26 04:35:00,
2010-07-25 23:40:00,68.3,66.5,30.06,SSE,157,0.0,0.0,94,0.00,,,0.00,WeatherTracker,2010-07-26 04:40:00,
2010-07-25 23:45:00,68.2,66.4,30.06,SSE,157,0.0,0.0,94,0.00,,,0.00,WeatherTracker,2010-07-26 04:45:00,
2010-07-25 23:50:00,68.1,66.3,30.06,SSE,157,0.0,0.0,94,0.00,,,0.00,WeatherTracker,2010-07-26 04:50:00,
2010-07-25 23:55:00,68.1,66.3,30.06,SSE,157,0.0,0.0,94,0.00,,,0.00,WeatherTracker,2010-07-26 04:55:00,